Flag for Canada Weather past 2 weeks in Whistler, British Columbia, Canada

Now
59 °F

Cool.


Feels Like: 59 °F
Forecast: 53 / 60 °F
Wind: 1 mph from Southeast

Location: Squamish Airport

Current Time: Sep 23, 2014 at 6:27:45 PM

Latest Report: Sep 23, 2014 at 6:00 PM


Visibility: N/A

Pressure: 29.72 "Hg

Humidity: 94%

Dew point: 58 °F

Location of WhistlerLocation

Historic Weather in Whistler — Graph

°F

Whistler temperature yesterday

Maximum temperature yesterday: 72 °F (at 3:00 PM)
Minimum temperature yesterday: 53 °F (at 6:00 AM)
Average temperature yesterday: 61 °F

Past Weeks' High & Low Weather Summary

 TemperatureHumidityPressure
High83 °F (Sep 21, 2:00 PM)100% (Sep 22, 11:00 PM)30.37 "Hg (Sep 22, 11:00 PM)
Low42 °F (Sep 11, 6:00 AM)10% (Sep 10, 3:00 PM)29.67 "Hg (Sep 18, 5:00 AM)
Average61 °F67%29.94 "Hg
* Reported Sep 8 5:00 PM — Sep 23 5:00 PM, Whistler, Weather by CustomWeather, © 2014

Note: Actual official high and low records may vary slightly from our data, if they occured in-between our weather recording intervals... More about our weather records

Advertising

Whistler weather history for previous 24 hours

 ConditionsComfort  
Time TempWeatherWind HumidityBarometerVisibility
5:00 PM
Sep 23
60 °FCool.1 mph89%29.74 "HgN/A
4:00 PM58 °FCool.No wind100%29.75 "HgN/A
3:00 PM60 °FCool.1 mph93%29.76 "HgN/A
2:00 PM59 °FCool.3 mph90%29.76 "HgN/A
1:00 PM58 °FCool.No wind99%29.79 "HgN/A
12:00 PM60 °FCool.1 mph91%29.80 "HgN/A
11:00 AM59 °FCool.1 mph88%29.79 "HgN/A
10:00 AM57 °FCool.2 mph93%29.81 "HgN/A
9:00 AM56 °FCool.1 mph87%29.83 "HgN/A
8:00 AM51 °FCool.No wind100%29.83 "HgN/A
7:00 AM53 °FCool.1 mph96%29.84 "HgN/A
6:00 AM53 °FCool.2 mph96%29.85 "HgN/A
5:00 AM52 °FCool.2 mph96%29.86 "HgN/A
4:00 AM54 °FCool.1 mph95%29.86 "HgN/A
3:00 AM55 °FCool.2 mph95%29.87 "HgN/A
2:00 AM57 °FCool.No wind94%29.89 "HgN/A
1:00 AM58 °FCool.1 mph94%29.89 "HgN/A
12:00 AM57 °FCool.No wind94%29.89 "HgN/A
11:00 PM
Sep 22
56 °FCool.1 mph100%29.90 "HgN/A
10:00 PM58 °FCool.No wind93%29.92 "HgN/A
9:00 PM59 °FCool.1 mph94%29.92 "HgN/A
8:00 PM61 °FCool.No wind84%29.92 "HgN/A
7:00 PM63 °FMild.3 mph83%29.91 "HgN/A
6:00 PM66 °FMild.6 mph70%29.90 "HgN/A
Weather by CustomWeather, © 2014

See weather overviewHow to use our weather pages